STARLINK-31779, 59744

Orbit data source: Space-Track

STARLINK-31779, 59744 is a payload satellite owned by SpaceX/Seattle (US) in LEO that was launched on Mon, 13 May 2024 UTC via an FALCON 9 launch vehicle from the Air Force Eastern Test Range (AFETR). Payload-class satellites include a variety of spacecraft equipped with specific instruments for various scientific and technological missions. These include communications satellites like Starlink; space stations such as the ISS; scientific satellites like the Hubble; Earth observation satellites from companies like Planet Labs, Umbra, and HawkEye 360; GPS; miniature CubeSats for education and research; and military/defense satellites.

Loading next visibility...
Identifier
59744, 2024-090Q
Orbit
LEO
Country
Flag of USUS
Related business
Manufacturer
SpaceX/Seattle
Mission
Operational Commercial Communications
Bus & Motor
STARLINK V2M, Unknown motor
Mass
730 kg wet, ~700 kg dry
Launch date (UTC)
2024-05-13 (2 years ago)
Launch vehicle
FALCON 9
Launch site
Air Force Eastern Test Range (AFETR)
Object type
Payload
Rocket body
Debris
Shape & HBR
Box + 2 Pan, 17.7 m
Radar Cross Section
33.884 m², Large (>1 m²)

Expand to show TLE details & history
Last TLE update: 2 days ago

TLE from 2 days ago
0 STARLINK-31779
1 59744U 24090Q   26171.41905957  .00004602  00000-0  17670-3 0  9997
2 59744  43.0076 323.1330 0001807 281.1143  78.9506 15.27571735119157
Epoch: 2026-06-20T10:03Z
TLE epoch observation values (Epoch: 2026-06-20T10:03:26.746Z)
Latitude
-0°
Longitude
-96.3624°
Altitude
482.613 km
Speed
7.626 km/s
True Right ascension
21h 32m 31s
True Declination
0° 00' 00"
Sunlit
Object was in full shadow at epoch
Visualization orbit readout
Latitude
Unknown
Longitude
Unknown
Altitude
Unknown
Speed
Unknown
Apparent Right ascension
Unknown
Apparent Declination
Unknown
Sunlit
N/A
Visualization observer readout
Local Sidereal Time
00:29:39
Azimuth
Unknown
Elevation
Unknown
Doppler factor
Unknown
Orbital elements
Apogee altitude
486.258 km
Perigee altitude
483.778 km
Semi-major axis
6,863.155 km
Eccentricity
0.00018
Inclination
43.0076°
RAAN
323.133°
Arg. of periapsis
281.1143°
True anomaly
78.97092°
Mean anomaly
78.9506°
Eccentric anomaly
78.96076°
Mean motion
3.81731 °/min
Orbital period
94.31 mins
BSTAR
0.0001767
Loading maneuver chart data...
Computing Atmospheric mass density...
Loading historical data...
Loading historical data...
Loading historical data...
Loading historical data...
Loading historical data...
Loading historical data...
Loading historical data...

Documentation

Showing up to 5 results
|